"Pseudo-MPEC" for ZTF10Do

Created 2026 May 12 3:35:12 UT using Find_Orb

Click here for an explanation of pseudo-MPECs

 
 Astrometry: 
     ZTF10Do*0C2026 05 10.23151612 33 56.634-18 46 28.40   ~5A85 18.27iUNEOCPI41
     ZTF10Do 0C2026 05 10.23186312 33 57.185-18 46 14.28   ~5A85 18.27iUNEOCPI41
     ZTF10Do 0C2026 05 10.25041612 34 31.476-18 33 19.23   ~5A85 18.57iUNEOCPI41
     ZTF10Do 0C2026 05 10.25076312 34 32.182-18 33 04.22   ~5A85 18.57iUNEOCPI41
     ZTF10Do 0C2026 05 10.25192112 34 34.396-18 32 14.90   ~5A85 18.49RUNEOCPI41
     ZTF10Do 0C2026 05 10.25226912 34 35.061-18 32 00.16   ~5A85 18.49RUNEOCPI41
     ZTF10Do 0B2026 05 10.96626413 03 39.864-08 24 51.98   ~5B9Z 18.5 GZNEOCPJ69
     ZTF10Do 0B2026 05 10.96715513 03 42.089-08 23 57.48   ~5B9Z 18.2 GZNEOCPJ69
     ZTF10Do 0B2026 05 10.96804613 03 44.393-08 23 02.76   ~5B9Z 18.2 GZNEOCPJ69
     ZTF10Do KB2026 05 11.49460813 31 37.478+01 51 37.55   ~5BDZ 18.1 GXNEOCPQ10
     ZTF10Do KB2026 05 11.50158213 31 59.381+02 00 40.43   ~5BDZ 18.4 GXNEOCPQ10

Station data:
(I41) Palomar Mountain--ZTF  (N33.357336 W116.859780)  US/California.
   Observers B. T. Bolin, Z. T. F. Collaboration. Measurers B. T. Bolin,
   Z.-Y. Lin, F. J. Masci. 1.2-m f/2.4 Schmidt.
(J69) North Observatory, Clanfield  (N50.938986 W1.019660)  UK/England.
   Observer D. Briggs. 0.41-m f/4.5 Newtonian reflector + CCD.
(Q10) Toyokawa Observatory  (N34.843616 E137.329440)  Japan.  Observer M.
   Ishiguro. 0.20-m f/5 reflector + CCD.

Orbital elements:  ZTF10Do
   Perihelion 2026 May 28.655883 +/- 0.00417 TT = 15:44:28.3 (JD 2461189.155883)
Epoch 2026 May 11.0 TT = JDT 2461171.5   Earth MOID: 0.0077      AutoNEOCP
M 349.653836224 +/- 0.030           (J2000 ecliptic)
n   0.585989590 +/- 0.00158         Peri.   19.415323 +/- 0.0056
a   1.414304038 +/- 0.00254         Node   229.683727 +/- 0.0009
e   0.28916744 +/- 0.0013           Incl.   10.823491 +/- 0.033
P   1.682/614.334d         H 27.05  G  0.15   U  8.4
q 1.005333360 +/- 2.35e-5    Q 1.823274716 +/- 0.00511
From 11 observations 2026 May 10-11 (30.5 hr); mean residual 0".53
Residuals in arcseconds: 
260510 I41  .86+  .19+    260510 I41  .40+  .38+    260510 J69  .39-  .38-    
260510 I41  .40-  .10-    260510 I41  .64+  .46+    260511 Q10  .28+  .42-    
260510 I41  1.3-  .58-    260510 J69  .96+  .30+    260511 Q10  .39-  .53+    
260510 I41  .42-  .18-    260510 J69  .29-  .14-    

Ephemerides (geocentric):
Date (UTC) HH   RA             Dec           delta  r     elong  mag " sig PA
---- --------  ------------   ------------  ------ ------ -----  --- --------
2026 05 12 04  14 15 06.330   +17 39 45.07  .00839 1.0167 141.4 18.2 4.67  61
2026 05 12 05  14 18 09.686   +18 40 09.44  .00839 1.0166 140.7 18.3 5.05  59
2026 05 12 06  14 21 15.403   +19 40 25.79  .00839 1.0166 140.0 18.3 5.44  58
2026 05 12 07  14 24 23.459   +20 40 29.91  .00839 1.0165 139.3 18.3 5.83  57
2026 05 12 08  14 27 33.828   +21 40 17.62  .00839 1.0165 138.6 18.3 6.23  56
2026 05 12 09  14 30 46.478   +22 39 44.76  .00840 1.0164 137.8 18.3 6.63  56
2026 05 12 10  14 34 01.373   +23 38 47.25  .00842 1.0164 137.0 18.4 7.02  55
2026 05 12 11  14 37 18.475   +24 37 21.08  .00843 1.0163 136.3 18.4 7.42  54
2026 05 12 12  14 40 37.739   +25 35 22.34  .00846 1.0162 135.5 18.4 7.81  54
2026 05 12 13  14 43 59.117   +26 32 47.26  .00848 1.0162 134.7 18.4 8.19  54
2026 05 12 14  14 47 22.554   +27 29 32.23  .00851 1.0161 133.8 18.5 8.57  54
2026 05 12 15  14 50 47.992   +28 25 33.77  .00854 1.0161 133.0 18.5 8.94  53
2026 05 12 16  14 54 15.369   +29 20 48.60  .00858 1.0160 132.2 18.5 9.30  53
2026 05 12 17  14 57 44.618   +30 15 13.64  .00862 1.0160 131.4 18.6 9.65  53
2026 05 12 18  15 01 15.665   +31 08 46.01  .00866 1.0159 130.5 18.6 9.99  53
2026 05 12 19  15 04 48.434   +32 01 23.03  .00871 1.0159 129.7 18.6 10.3  54
2026 05 12 20  15 08 22.844   +32 53 02.25  .00876 1.0158 128.9 18.7 10.6  54
2026 05 12 21  15 11 58.808   +33 43 41.46  .00882 1.0157 128.0 18.7 10.9  54
2026 05 12 22  15 15 36.236   +34 33 18.66  .00887 1.0157 127.2 18.8 11.2  54
2026 05 12 23  15 19 15.034   +35 21 52.10  .00893 1.0156 126.4 18.8 11.5  54
2026 05 13 00  15 22 55.104   +36 09 20.22  .00900 1.0156 125.6 18.8 11.7  55
2026 05 13 01  15 26 36.343   +36 55 41.74  .00907 1.0155 124.8 18.9 12.0  55
2026 05 13 02  15 30 18.646   +37 40 55.56  .00914 1.0155 124.0 18.9 12.2  55
2026 05 13 03  15 34 01.904   +38 25 00.81  .00921 1.0154 123.2 18.9 12.4  56
2026 05 13 04  15 37 46.004   +39 07 56.84  .00929 1.0154 122.4 19.0 12.6  56
2026 05 13 05  15 41 30.834   +39 49 43.18  .00937 1.0153 121.6 19.0 12.8  57
2026 05 13 06  15 45 16.275   +40 30 19.56  .00945 1.0153 120.9 19.1 13.0  57
2026 05 13 07  15 49 02.208   +41 09 45.91  .00953 1.0152 120.1 19.1 13.2  58
2026 05 13 08  15 52 48.515   +41 48 02.31  .00962 1.0151 119.4 19.2 13.3  58
2026 05 13 09  15 56 35.072   +42 25 09.01  .00971 1.0151 118.6 19.2 13.4  59
2026 05 13 10  16 00 21.758   +43 01 06.40  .00980 1.0150 117.9 19.2 13.5  59
2026 05 13 11  16 04 08.449   +43 35 55.04  .00990 1.0150 117.2 19.3 13.7  60
2026 05 13 12  16 07 55.024   +44 09 35.59  .01000 1.0149 116.5 19.3 13.7  60
2026 05 13 13  16 11 41.359   +44 42 08.84  .01009 1.0149 115.8 19.4 13.8  61
2026 05 13 14  16 15 27.332   +45 13 35.67  .01020 1.0148 115.2 19.4 13.9  62
2026 05 13 15  16 19 12.823   +45 43 57.10  .01030 1.0148 114.5 19.4 13.9  62
2026 05 13 16  16 22 57.713   +46 13 14.19  .01041 1.0147 113.9 19.5 14.0  63
2026 05 13 17  16 26 41.885   +46 41 28.09  .01052 1.0147 113.2 19.5 14.0  64
2026 05 13 18  16 30 25.224   +47 08 40.04  .01063 1.0146 112.6 19.6 14.1  64
2026 05 13 19  16 34 07.618   +47 34 51.32  .01074 1.0146 112.0 19.6 14.1  65
2026 05 13 20  16 37 48.957   +48 00 03.24  .01085 1.0145 111.4 19.7 14.1  65
2026 05 13 21  16 41 29.134   +48 24 17.19  .01097 1.0145 110.8 19.7 14.1  66
2026 05 13 22  16 45 08.048   +48 47 34.57  .01109 1.0144 110.2 19.7 14.1  67
2026 05 13 23  16 48 45.600   +49 09 56.82  .01120 1.0144 109.6 19.8 14.1  67
2026 05 14 00  16 52 21.694   +49 31 25.38  .01133 1.0143 109.1 19.8 14.0  68
2026 05 14 01  16 55 56.239   +49 52 01.73  .01145 1.0142 108.5 19.9 14.0  69
2026 05 14 02  16 59 29.149   +50 11 47.34  .01157 1.0142 108.0 19.9 14.0  69
2026 05 14 03  17 03 00.342   +50 30 43.68  .01170 1.0141 107.5 19.9 13.9  70